Theta_e
292 293 294 295 295 296 296 296 298 299 299 298 298 298 299 300 299 293 291 292 288 283 285 285 285 285 287 289 287 286 288 287 286 285 283 282 271 278 274 277 281 281 280 278 277 280 278 284 285 286 288 285 286 288
290 291 292 293 294 295 295 296 298 298 298 298 298 298 298 300 299 295 288 292 292 285 285 288 286 287 287 288 287 285 286 286 288 286 283 285 281 274 274 273 280 280 283 280 285 284 286 284 284 284 286 285 284 286
288 289 291 292 293 293 295 296 297 297 297 297 297 298 299 299 299 294 288 288 287 282 284 285 283 288 290 288 290 286 285 288 286 287 283 282 274 277 273 273 276 280 282 281 282 282 283 284 283 283 284 283 285 285
287 289 290 291 292 293 293 294 295 296 296 296 297 297 298 299 298 294 288 288 285 281 279 281 286 285 287 289 293 293 290 290 289 287 284 279 274 282 277 279 278 280 284 278 279 282 282 283 284 284 284 285 284 285
288 289 290 290 291 291 291 292 294 295 295 295 295 296 298 298 297 292 291 290 288 283 277 280 283 284 286 290 292 292 290 287 285 284 283 281 278 277 273 277 273 284 281 282 278 284 284 285 285 285 284 284 284 284
289 289 290 290 291 291 292 292 293 293 294 294 295 296 297 295 292 286 282 287 291 285 278 273 281 281 284 286 287 286 286 285 285 284 282 283 283 280 273 269 280 283 285 287 285 286 288 287 285 284 285 284 284 283
288 288 289 290 291 291 292 293 293 293 294 294 295 296 296 295 289 282 277 285 292 285 276 272 272 281 282 282 283 283 284 283 283 282 281 282 280 280 272 270 280 283 285 282 284 286 286 284 283 282 283 282 280 277
287 288 288 289 290 291 291 292 293 292 293 294 295 296 296 294 290 284 290 292 287 278 274 269 271 277 281 275 277 281 280 281 280 280 279 279 280 277 275 280 281 282 282 282 281 281 283 283 281 279 277 277 279 278
286 288 288 288 289 290 291 292 293 293 294 294 294 292 287 280 277 285 291 291 285 278 268 264 267 270 280 280 279 278 278 275 278 277 278 277 270 273 278 280 281 281 281 281 277 276 277 277 275 275 274 275 275 274
285 287 288 289 289 289 291 292 292 291 291 289 284 279 276 282 290 287 279 275 276 272 270 265 262 269 278 275 273 273 273 272 269 273 277 271 268 277 277 276 277 278 277 276 276 276 275 274 274 272 271 271 272 270
285 286 287 287 288 288 289 290 290 289 288 280 277 276 282 285 274 269 268 267 265 266 274 264 265 272 275 270 269 276 270 267 265 269 270 265 269 275 273 270 270 272 272 270 272 272 271 271 272 271 268 265 264 263
286 286 286 286 287 288 288 289 289 284 284 281 280 279 273 269 264 265 258 262 263 263 266 265 268 270 271 274 272 269 266 266 264 271 272 261 269 266 265 265 264 264 265 263 264 264 264 264 263 264 261 259 257 257
286 286 286 286 287 287 287 288 289 289 287 276 270 266 267 264 261 258 255 258 260 260 265 268 270 273 271 273 267 267 264 263 269 267 268 266 264 260 259 260 262 260 261 260 259 259 259 258 257 256 255 253 254 255
287 286 285 285 286 286 286 287 288 287 280 272 263 261 260 259 258 257 257 257 261 263 267 269 272 270 265 270 266 265 263 265 260 260 262 261 256 254 256 255 256 255 255 255 253 255 256 256 254 250 250 249 250 253
285 285 286 286 286 286 285 286 287 276 273 267 262 258 258 256 254 250 250 259 263 261 267 270 270 273 267 268 266 261 262 259 262 263 261 256 253 253 253 251 250 250 250 251 250 250 252 252 251 250 248 247 247 249
282 281 280 287 286 284 282 284 278 271 264 261 254 256 254 258 260 255 259 263 262 263 268 271 271 267 267 267 261 260 261 259 262 252 250 251 250 250 249 249 249 248 247 247 248 249 251 250 249 248 247 247 247 246
281 271 284 286 285 280 286 270 264 260 262 258 253 251 249 249 250 250 250 256 259 263 268 271 265 267 268 263 260 256 260 256 250 249 248 247 246 247 246 247 248 248 248 248 247 249 248 249 248 250 250 250 247 246
271 275 283 283 276 272 261 259 255 260 257 255 252 249 251 249 247 250 253 256 258 258 261 268 269 264 261 260 260 254 251 249 248 246 248 246 245 244 243 244 246 246 245 245 244 244 244 246 247 248 246 248 248 249
277 278 280 279 273 263 261 259 258 255 253 253 254 251 249 251 252 254 254 256 257 258 258 260 262 260 255 250 248 246 245 245 246 248 247 245 245 243 244 244 244 244 245 244 243 244 243 242 244 244 244 244 246 247
277 278 278 276 271 260 256 254 254 254 250 253 253 253 249 251 251 250 252 254 257 256 254 251 247 245 246 246 244 244 244 245 242 244 245 247 246 244 246 244 245 244 244 242 243 245 243 246 244 244 243 244 244 247
270 270 271 264 258 258 256 254 254 251 249 254 253 252 251 249 249 250 250 254 253 248 249 247 247 244 242 240 241 241 244 244 243 243 243 244 245 245 246 245 241 241 242 241 242 245 243 243 245 245 242 244 244 245
262 270 259 263 259 255 255 255 253 253 252 250 253 251 250 250 247 249 252 250 248 246 243 242 241 239 240 241 240 240 240 239 239 241 245 245 243 243 244 243 242 243 242 242 241 242 244 245 245 245 243 246 247 246
263 263 257 256 257 255 252 255 253 251 251 252 253 252 250 249 249 251 247 243 243 243 239 238 238 236 238 238 236 237 236 238 239 239 239 241 241 242 243 244 241 241 244 245 241 242 244 247 247 247 247 246 244 245
258 249 249 248 249 246 248 249 250 249 249 248 249 251 251 249 252 252 246 241 244 239 239 240 236 241 239 238 239 240 240 237 238 239 239 237 240 243 240 243 243 243 246 245 246 248 250 250 251 250 250 247 244 245
254 245 246 245 245 246 245 246 247 248 245 244 246 248 248 246 248 245 246 246 242 241 241 238 237 239 240 240 240 240 237 240 241 242 243 240 241 241 244 242 245 246 244 243 244 246 249 250 251 251 251 250 249 248
243 238 242 237 242 244 240 244 242 243 241 245 243 242 240 245 248 247 246 244 243 242 243 244 245 246 246 244 242 240 242 238 238 239 243 241 242 242 241 242 245 247 243 244 244 243 246 249 249 249 249 250 250 249
246 242 238 235 237 237 239 238 238 241 242 243 239 241 242 246 246 248 245 244 244 243 243 243 244 244 245 245 243 242 241 238 243 244 240 240 243 244 245 245 245 246 244 244 244 244 245 245 246 247 248 249 249 247
237 235 240 238 237 232 237 235 238 240 239 237 237 243 246 247 248 247 248 245 240 237 238 239 241 242 243 244 244 241 241 236 235 239 241 244 244 245 245 246 248 252 249 244 244 244 243 244 244 244 245 245 247 246
236 231 233 239 235 237 237 240 239 236 236 234 239 241 243 243 241 239 242 239 232 236 240 241 242 233 238 238 239 239 238 236 240 242 242 245 242 247 241 242 242 243 243 241 246 251 248 246 246 247 247 248 248 247
236 229 237 235 240 243 239 235 234 229 228 231 231 235 238 239 240 236 235 235 239 243 242 239 236 235 241 237 243 243 239 240 242 245 244 247 247 242 238 238 241 242 242 240 243 244 248 247 246 240 244 244 244 246
230 229 235 234 238 235 232 227 225 226 226 227 225 230 235 236 237 239 239 238 237 234 236 243 241 237 238 238 237 237 247 241 241 242 244 246 245 245 246 246 246 245 243 242 242 242 243 243 243 243 243 243 244 245
232 233 237 241 240 232 228 229 229 230 230 230 231 225 232 234 240 247 242 237 236 238 244 243 240 247 245 247 244 245 248 249 245 245 243 245 245 246 247 246 246 243 242 243 243 243 243 242 243 244 244 244 245 245
230 228 229 233 238 240 235 234 236 237 234 234 235 232 232 237 245 249 244 243 249 249 250 249 249 247 246 246 247 248 247 247 247 251 252 252 250 249 248 247 246 245 244 244 244 244 244 244 244 244 244 245 245 246
Wind_Speed
19 16 14 12 8 8 7 2 9 8 9 9 6 5 6 5 4 4 1 4 3 4 4 6 6 4 3 5 9 6 6 2 1 5 4 3 3 7 4 4 8 8 8 4 4 8 17 6 6 14 5 2 2 3
14 16 14 13 9 7 5 7 9 10 10 10 8 6 6 6 6 4 3 3 4 6 3 1 3 6 6 6 4 2 2 6 5 6 2 5 3 2 5 4 2 2 8 9 13 9 2 5 2 3 0 2 2 2
9 11 12 9 9 8 7 8 10 7 8 9 8 8 7 6 9 6 3 3 3 4 2 2 4 6 11 6 6 5 1 4 3 1 5 3 5 3 5 5 4 3 2 4 4 2 3 3 2 2 2 3 3 2
6 9 7 6 7 7 5 4 8 9 6 7 8 7 8 9 11 8 3 3 3 3 4 3 3 5 9 8 6 7 7 5 4 3 3 4 4 2 2 3 4 3 5 5 3 0 0 0 1 3 3 2 4 4
10 12 8 5 5 4 3 1 5 7 7 5 6 6 8 11 15 8 3 3 2 4 4 2 2 7 8 4 9 10 10 6 4 4 4 2 2 4 2 2 0 4 6 4 5 3 3 1 3 2 3 4 6 4
11 10 11 10 8 6 4 3 5 7 6 6 4 4 8 8 6 4 4 3 5 2 5 4 3 5 7 9 11 8 5 4 3 3 3 2 1 3 4 3 3 3 1 3 4 3 4 6 6 4 5 5 5 5
13 10 12 12 13 9 8 9 6 4 6 8 7 7 8 10 6 5 4 3 7 2 5 3 3 5 4 3 3 3 5 3 3 2 3 2 2 3 3 3 3 6 5 3 5 4 5 4 3 3 6 5 4 3
11 10 9 11 13 13 7 10 10 2 6 7 8 13 16 15 9 5 5 10 3 6 5 5 1 2 5 3 3 3 2 2 6 2 2 3 2 2 1 4 1 2 6 6 5 6 3 6 4 4 3 3 6 8
8 9 9 9 12 14 13 11 17 5 14 14 17 11 7 7 3 1 8 3 3 5 4 3 4 3 2 2 2 3 2 4 1 3 2 3 2 2 2 2 4 4 4 7 4 5 6 6 4 3 4 7 7 5
5 7 12 13 13 13 17 14 14 12 19 16 7 4 2 1 5 4 9 6 7 6 5 3 2 2 3 2 2 2 2 2 2 1 2 3 3 2 6 5 7 7 7 4 6 2 3 5 5 4 6 5 5 4
6 7 12 14 13 14 14 14 14 10 7 4 2 2 1 5 5 5 4 5 4 5 3 1 2 3 3 4 3 3 2 2 3 4 4 1 3 1 8 9 11 11 10 10 8 9 7 6 5 4 6 7 7 7
10 8 10 11 12 14 15 16 13 5 2 2 3 3 3 6 5 8 1 3 3 3 3 3 1 2 1 2 4 3 4 3 2 2 2 3 3 5 8 9 11 11 10 10 10 10 9 10 7 6 5 5 5 4
13 11 10 10 13 14 14 14 13 11 4 3 6 6 5 4 8 6 1 5 2 2 2 1 2 1 2 4 4 4 5 2 2 3 3 5 2 5 6 6 6 10 9 8 8 6 6 6 7 7 5 4 4 4
18 13 11 10 10 11 11 10 10 7 5 5 5 5 4 4 1 4 4 4 3 2 1 1 3 3 1 5 2 6 2 3 3 1 5 1 3 4 5 6 6 8 9 8 8 7 7 7 5 4 5 4 4 6
14 12 15 15 13 10 6 7 10 5 4 4 4 1 1 2 2 1 2 1 3 2 2 2 3 3 3 5 3 4 4 2 5 5 2 2 4 5 4 5 6 6 6 5 5 5 6 6 4 3 3 4 4 3
6 8 9 20 14 8 5 4 6 3 5 4 10 4 3 3 3 4 4 2 4 4 3 2 2 4 2 4 4 5 6 6 4 0 2 3 3 4 4 4 4 3 3 3 3 3 4 6 5 5 5 4 4 3
12 3 21 20 16 15 17 7 5 8 5 6 4 2 1 2 2 2 1 3 4 3 2 0 4 1 2 3 1 3 5 2 1 2 1 1 2 4 5 4 5 5 5 5 4 4 3 4 3 3 5 5 5 4
4 6 21 18 8 5 6 8 7 6 7 4 4 4 2 1 2 3 3 2 3 2 2 2 2 3 3 4 3 1 1 2 2 2 2 2 2 2 2 3 5 5 5 4 3 4 3 3 3 2 3 5 6 4
10 12 16 14 8 7 6 7 5 6 3 1 1 2 1 1 1 2 3 4 2 1 2 3 4 1 2 0 1 2 2 1 2 3 3 3 1 3 4 3 4 4 6 5 4 3 3 3 3 2 2 2 2 3
6 17 20 19 11 6 8 5 3 6 3 1 2 3 1 0 2 2 4 5 3 3 8 6 1 2 2 2 3 3 2 1 1 4 3 3 1 4 5 3 3 5 4 4 4 2 3 3 2 2 2 2 2 4
11 10 16 8 6 8 6 3 5 2 1 3 1 2 1 3 4 5 4 5 5 4 2 1 2 3 2 3 1 1 2 2 3 3 3 4 3 3 4 4 3 2 1 2 3 4 2 2 4 3 2 4 3 4
3 13 5 9 7 6 6 3 3 1 4 1 3 2 4 3 4 3 4 6 3 2 3 2 3 2 2 3 3 5 3 3 2 3 5 5 3 3 3 3 2 3 3 3 3 4 4 4 3 3 2 4 4 4
7 6 6 9 8 9 3 4 5 6 5 4 2 4 4 3 2 2 4 1 3 2 2 3 3 3 4 4 3 4 5 5 3 4 3 4 4 4 4 4 3 3 4 3 3 3 4 5 4 4 3 3 2 3
13 11 9 7 7 2 4 6 4 4 4 5 4 2 4 3 5 3 2 3 4 2 1 2 1 4 2 2 2 3 4 3 2 4 3 2 3 4 3 4 4 4 5 3 2 3 4 4 6 4 3 3 3 3
11 13 8 10 5 7 8 7 7 6 3 4 4 4 4 5 3 4 0 4 3 2 2 1 0 2 3 4 3 4 3 4 3 4 4 4 2 3 3 3 4 5 3 1 3 2 4 4 4 5 6 5 6 6
12 6 7 2 4 5 2 4 5 4 3 5 2 3 3 2 4 2 3 3 3 3 3 3 2 2 3 4 3 2 4 3 3 2 5 4 4 4 3 3 6 6 3 3 2 3 4 5 6 7 7 7 8 7
8 5 3 0 2 1 2 1 0 3 4 3 3 6 4 4 3 5 3 3 3 4 3 3 3 4 5 5 4 5 4 4 6 5 2 4 5 6 7 8 8 6 3 4 4 4 6 6 6 7 7 7 7 6
3 3 1 5 3 1 3 2 2 2 2 1 1 2 2 5 5 4 5 2 2 1 3 4 5 5 5 7 5 4 4 2 3 6 7 8 8 7 8 8 8 11 7 4 4 4 5 7 7 8 8 9 10 6
3 2 1 4 3 3 1 3 3 3 2 3 3 3 5 5 4 3 3 1 1 3 4 4 3 1 4 5 5 4 3 3 2 4 5 5 4 5 3 4 4 4 4 4 8 11 11 9 10 10 12 10 9 7
4 1 2 1 2 1 3 4 3 2 1 2 2 4 4 6 6 2 2 1 2 5 4 3 2 1 4 2 5 6 3 6 7 6 5 6 6 3 2 3 4 5 4 4 7 8 10 9 7 5 6 7 6 8
0 2 2 1 3 3 3 1 1 1 2 1 1 3 5 7 8 4 4 4 2 0 2 5 4 4 4 4 4 3 6 3 7 10 9 7 7 7 7 7 7 5 5 6 7 7 8 7 7 9 10 12 13 11
3 2 1 3 4 2 3 3 1 1 1 1 3 1 5 4 5 5 4 5 3 2 8 5 4 6 7 7 4 5 9 7 5 8 11 9 10 10 9 7 6 5 6 8 8 8 10 11 10 11 12 15 14 13
1 1 1 2 4 5 4 4 3 5 1 2 4 4 4 3 7 5 2 7 6 5 5 5 5 5 6 7 8 8 8 8 10 12 14 15 16 14 8 7 7 7 9 9 9 10 12 14 13 15 15 16 16 16
Wind_Direction
21 32 25 32 77 88 64 91 166 150 127 109 87 63 55 104 65 80 315 354 96 87 38 0 14 37 9 133 149 162 103 337 53 83 119 172 135 205 100 174 169 147 147 179 98 219 256 155 64 188 227 341 64 50
6 9 20 16 44 62 53 60 133 138 127 110 93 56 47 111 72 75 61 358 13 73 99 69 96 52 7 343 116 44 76 144 173 122 148 133 146 142 153 199 5 191 177 175 188 210 225 190 13 43 339 113 36 84
4 2 2 12 31 50 61 84 91 98 109 100 83 59 56 71 62 82 89 345 52 97 57 48 360 346 7 347 293 118 19 135 96 144 145 129 125 125 146 231 104 288 200 156 98 227 212 208 97 108 14 107 108 72
22 10 4 15 34 41 45 84 117 97 69 93 78 63 61 70 61 75 69 317 74 103 96 27 315 21 317 330 20 55 116 91 88 51 78 97 119 141 184 134 132 192 130 154 285 305 187 1 186 106 121 71 86 77
35 27 33 49 25 43 81 81 127 113 95 83 86 71 86 91 90 82 88 26 45 120 146 97 283 351 349 33 75 62 62 72 62 57 56 88 136 98 335 67 266 183 174 177 216 169 118 80 60 77 99 69 43 64
24 32 24 49 45 59 84 110 166 154 137 133 129 106 123 88 60 42 33 6 6 25 94 75 308 348 349 31 59 49 36 46 75 102 96 84 346 100 109 175 236 170 201 187 162 153 109 115 83 21 96 61 31 55
34 31 41 40 41 39 77 76 97 163 160 141 159 131 96 80 66 72 177 265 332 36 81 75 10 341 340 4 49 28 25 46 56 90 66 89 49 53 79 165 195 180 151 97 69 94 57 41 95 61 88 73 66 60
23 32 50 40 50 35 55 48 25 66 182 167 153 131 105 89 70 40 356 358 35 88 68 103 298 20 2 26 54 336 97 42 17 84 61 91 40 60 164 232 288 153 144 110 81 64 109 110 71 49 44 59 73 58
28 38 59 62 51 43 41 50 20 51 87 89 100 85 50 38 45 233 342 341 45 100 105 84 129 164 332 70 53 16 33 62 299 79 60 71 309 188 224 157 187 194 172 150 91 85 92 94 76 30 56 35 66 36
62 47 62 64 60 49 47 44 54 55 91 76 45 45 55 14 236 357 12 17 12 346 32 92 311 69 54 13 38 62 26 61 76 301 20 58 251 307 29 41 33 29 48 45 99 79 48 60 59 36 56 50 63 45
125 74 63 54 48 48 45 48 36 49 37 47 65 69 284 336 53 33 45 58 326 18 12 219 180 122 325 97 135 354 129 40 84 261 124 353 275 119 20 45 23 25 44 35 56 68 50 63 76 79 56 38 30 18
133 98 69 53 49 41 39 34 34 38 40 118 131 83 45 38 42 82 0 326 56 208 304 93 227 134 8 68 93 345 95 45 185 255 131 300 247 34 23 29 28 24 37 49 40 53 46 47 27 57 52 34 19 348
123 95 69 55 44 36 29 30 42 32 357 26 45 49 47 320 52 96 122 309 351 280 305 10 73 88 38 52 59 70 72 192 252 64 213 228 52 42 8 358 32 25 32 42 40 40 48 53 46 44 44 12 353 8
99 81 59 44 32 27 19 7 23 44 36 50 71 33 82 336 275 169 169 187 256 333 290 74 63 68 344 55 123 85 251 60 55 40 237 276 31 354 12 8 27 12 15 27 23 19 32 33 39 32 30 351 354 23
79 60 35 13 4 353 9 340 49 40 43 53 56 88 37 228 60 271 241 327 351 303 310 39 40 75 25 86 54 96 50 250 203 223 218 16 352 344 15 10 14 11 4 7 357 2 6 7 12 6 357 353 4 350
62 51 3 353 347 350 294 162 46 65 59 47 33 54 329 45 357 23 1 36 8 328 286 40 74 60 36 116 80 208 124 211 238 29 304 329 353 358 356 350 350 331 334 325 346 343 347 2 348 324 325 358 342 359
59 38 342 350 2 19 89 91 70 46 60 46 27 59 75 93 167 253 340 307 314 320 86 113 84 158 66 69 359 197 198 241 256 305 302 275 295 323 335 334 352 351 349 353 339 351 337 315 318 353 12 337 333 326
41 307 0 356 11 32 38 37 74 63 64 22 58 303 5 106 281 326 295 304 333 30 28 82 101 71 148 147 267 143 79 299 223 223 255 269 312 319 315 325 334 340 342 331 330 308 314 7 15 358 304 320 319 345
34 15 15 16 51 76 61 25 36 86 48 0 277 22 63 317 287 303 298 297 262 276 66 29 82 110 196 257 220 278 272 271 302 321 296 290 262 356 327 322 310 338 338 327 332 320 297 260 238 266 288 324 318 305
14 18 11 24 42 68 58 11 47 82 83 291 30 19 68 191 294 339 320 358 6 30 37 42 147 231 195 233 203 214 225 279 38 337 323 341 7 354 341 337 319 324 314 323 311 318 346 342 302 311 315 299 330 308
21 348 8 45 47 57 81 5 44 99 150 75 293 56 321 12 28 5 345 329 58 37 70 231 209 245 247 263 267 242 270 175 205 183 232 294 300 321 309 309 288 307 319 311 309 308 347 280 279 300 300 294 268 259
326 7 42 15 68 47 76 9 105 295 64 200 34 33 32 23 343 346 306 46 58 240 187 191 232 224 301 282 232 208 226 190 242 261 263 266 273 306 284 256 327 295 284 261 242 258 279 275 276 272 264 279 278 275
18 27 47 15 66 41 318 351 59 1 61 336 9 40 13 356 282 333 64 198 239 228 202 209 237 223 232 294 310 270 212 196 233 237 250 245 250 255 258 266 210 223 278 274 193 240 268 280 285 291 294 308 319 313
31 45 36 40 23 24 337 20 23 27 32 25 17 34 359 325 322 44 61 275 253 313 323 252 63 329 333 341 282 250 242 176 255 289 247 217 286 282 231 272 273 243 231 259 280 285 295 294 309 309 307 298 301 296
63 1 24 4 1 23 27 8 355 30 37 337 26 1 353 344 35 45 267 278 306 279 263 272 325 201 212 262 275 268 222 169 202 269 267 195 247 311 298 283 277 264 190 164 283 295 300 301 301 302 305 303 302 300
65 324 44 303 329 45 338 26 15 353 354 354 344 286 357 25 49 314 251 235 235 220 225 211 220 291 270 212 240 281 259 181 132 219 273 200 201 194 243 279 303 295 205 162 170 266 281 288 290 296 293 292 292 295
56 339 337 194 135 137 27 341 311 71 31 4 317 343 16 53 288 259 280 232 217 228 211 200 179 200 235 264 246 249 235 189 207 226 245 232 234 216 222 245 252 238 178 189 214 218 255 275 278 277 281 285 271 257
124 23 39 319 12 2 127 49 44 25 269 243 61 350 164 197 239 240 215 234 212 262 261 250 225 222 237 246 251 261 270 254 279 269 266 253 239 233 227 234 243 249 251 210 227 234 233 248 254 261 262 266 276 254
45 318 110 355 345 23 161 151 227 234 188 121 158 263 253 238 245 239 258 220 73 42 309 307 293 328 264 257 248 235 217 154 77 310 299 280 320 295 204 219 238 239 237 243 264 259 248 239 244 247 252 254 259 261
324 52 50 27 75 297 251 163 232 258 236 214 277 302 278 266 249 214 238 222 239 235 234 238 275 64 275 331 307 306 224 190 201 200 220 254 237 253 241 239 243 243 230 230 259 269 275 283 297 310 285 276 267 267
215 44 35 130 246 251 236 266 335 346 346 295 316 207 265 307 305 242 211 215 214 7 337 281 280 207 214 230 214 272 296 228 212 227 239 260 267 265 259 248 241 235 226 231 244 250 258 264 253 259 261 262 263 257
8 83 72 323 298 291 29 35 303 284 293 333 266 271 297 326 284 279 192 132 108 243 235 216 230 261 212 232 235 237 246 266 230 227 228 237 245 249 251 249 241 223 227 240 240 243 242 242 256 254 258 262 262 261
62 153 188 330 322 336 339 357 4 326 310 278 259 207 227 209 251 280 256 218 220 216 233 224 231 252 243 240 244 255 239 243 249 252 254 248 247 251 252 242 237 230 234 243 247 246 248 248 253 257 258 259 263 264